カタログに戻る

CZ-3C DEB

LostGTO
NORAD 40869·DEBRIS·🇨🇳 China

打ち上げ Feb 24, 2012 から Xichang Satellite Launch Center

Loading…

TLE

古いSource: Space-Track

元期: Mar 25, 2025, 02:59 UTC

1 40869U 12008AK  25084.12490443  .00001585  00000-0  63035-1 0  9991
2 40869  18.4629 332.1867 7262175  75.3844 348.9966  2.08076827 89912

AllMySatでCZ-3C DEBをリアルタイム追跡

Download on the App Store